Location: Hylvaty SDH
(49.9612°N, 16.4057°E)
Time: 03:36:52
(UTC+01:00)

Explorer 7 - All Passes

Search period start: 25 January 2020 00:00
Search period end: 04 February 2020 00:00
Orbit: 485 x 679 km, 50.3° (Epoch: 24 January)

Date Brightness Start Highest point End Pass type
(mag) Time Alt. Az. Time Alt. Az. Time Alt. Az.
25 Jan - 01:14:57 10° W 01:18:44 85° N 01:22:35 10° E night (unlit)
25 Jan - 02:55:26 10° W 02:59:13 72° SSW 03:03:09 10° ESE night (unlit)
25 Jan - 04:36:09 10° W 04:39:21 24° SW 04:42:40 10° SSE visible
25 Jan - 22:00:25 10° S 22:03:13 20° SE 22:06:01 10° E night (unlit)
25 Jan - 23:39:30 10° WSW 23:43:13 65° SSE 23:46:58 10° E night (unlit)
26 Jan - 01:19:54 10° W 01:23:41 84° N 01:27:32 10° E night (unlit)
26 Jan - 03:00:23 10° W 03:04:06 57° SSW 03:07:59 10° ESE night (unlit)
26 Jan - 04:41:29 10° W 04:44:04 17° SW 04:46:43 10° S visible
26 Jan - 22:04:40 10° SSW 22:07:57 28° SSE 22:11:14 10° E night (unlit)
26 Jan - 23:44:22 10° WSW 23:48:08 80° SSE 23:51:55 10° E night (unlit)
27 Jan - 01:24:52 10° W 01:28:38 88° NNE 01:32:30 10° E night (unlit)
27 Jan - 03:05:21 10° W 03:08:58 42° SSW 03:12:42 10° SE night (unlit)
27 Jan - 04:47:35 10° WSW 04:48:44 11° SW 04:49:55 10° SSW visible
27 Jan - 22:09:12 10° SW 22:12:46 40° SSE 22:16:18 10° E night (unlit)
27 Jan - 23:49:18 10° W 23:53:04 89° N 23:56:52 10° E night (unlit)
28 Jan - 01:29:48 10° W 01:33:35 82° S 01:37:26 10° ESE night (unlit)
28 Jan - 03:10:24 10° W 03:13:46 30° SSW 03:17:15 10° SSE night (unlit)
28 Jan - 20:35:23 10° S 20:37:43 16° SE 20:40:00 10° ESE night (unlit)
28 Jan - 22:13:54 10° SW 22:17:36 54° SSE 22:21:17 10° E night (unlit)
28 Jan - 23:54:15 10° W 23:58:01 84° N 00:01:49 10° E night (unlit)
29 Jan - 01:34:44 10° W 01:38:29 67° SSW 01:42:18 10° ESE night (unlit)
29 Jan - 03:15:35 10° W 03:18:32 21° SW 03:21:33 10° SSE night (unlit)
29 Jan - 20:39:22 10° SSW 20:42:25 23° SE 20:45:26 10° E night (unlit)
29 Jan - 22:18:43 10° WSW 22:22:29 70° SSE 22:26:14 10° E night (unlit)
29 Jan - 23:59:12 10° W 00:02:58 84° N 00:06:46 10° E night (unlit)
30 Jan - 01:39:42 10° W 01:43:22 51° SSW 01:47:07 10° SE night (unlit)
30 Jan - 03:21:06 10° WSW 03:23:14 14° SW 03:25:24 10° S night (unlit)
30 Jan - 20:43:44 10° SSW 20:47:11 32° SSE 20:50:35 10° E night (unlit)
30 Jan - 22:23:37 10° WSW 22:27:25 84° SSE 22:31:11 10° E night (unlit)
31 Jan - 00:04:09 10° W 00:07:55 89° SSW 00:11:43 10° E night (unlit)
31 Jan - 01:44:41 10° W 01:48:12 37° SSW 01:51:46 10° SE night (unlit)
31 Jan - 19:10:42 10° SSE 19:12:13 12° SE 19:13:42 10° ESE visible
31 Jan - 20:48:19 10° SW 20:52:00 45° SSE 20:55:37 10° E night (unlit)
31 Jan - 22:28:33 10° W 22:32:21 87° N 22:36:07 10° E night (unlit)
01 Feb - 00:09:05 10° W 00:12:51 77° SSW 00:16:38 10° ESE night (unlit)
01 Feb - 01:49:47 10° W 01:52:58 26° SSW 01:56:15 10° SSE night (unlit)
01 Feb - 19:14:11 10° S 19:16:53 18° SE 19:19:32 10° E visible
01 Feb - 20:53:03 10° WSW 20:56:52 60° SSE 21:00:35 10° E night (unlit)
01 Feb - 22:33:30 10° W 22:37:18 83° N 22:41:04 10° E night (unlit)
02 Feb - 00:14:02 10° W 00:17:45 61° SSW 00:21:29 10° ESE night (unlit)
02 Feb - 01:55:04 10° W 01:57:43 18° SW 02:00:25 10° S night (unlit)
02 Feb - 19:18:19 10° SSW 19:21:37 26° SSE 19:24:50 10° E visible
02 Feb - 20:57:54 10° WSW 21:01:45 76° SSE 21:05:31 10° E visible
02 Feb - 22:38:27 10° W 22:42:15 86° N 22:46:01 10° E night (unlit)
03 Feb - 00:19:00 10° W 00:22:36 46° SSW 00:26:15 10° SE night (unlit)
03 Feb - 02:00:50 10° WSW 02:02:23 12° SW 02:03:58 10° SSW night (unlit)
03 Feb - 19:22:45 10° SW 19:26:24 36° SSE 19:29:56 10° E visible
03 Feb - 21:02:49 10° W 21:06:41 88° S 21:10:27 10° E visible
03 Feb - 22:43:24 10° W 22:47:12 86° S 22:50:58 10° ESE night (unlit)
